Погода в Кап-Аитьен

Гаити     19°45′04″N   72°12′17″W
темп.,
°C
ветер,
м/с
пор.,
м/с
влажн.,
%
обл.,
%
осадки,
мм/ч
давл.,
гПа
погр.,
м
29 ноября, пн
пн2901:00+24юз32820 0.0 1013164
04:00+23ююз22820 0.0 1013142
07:00+24ююз227621 0.0 1014159
10:00+26ссв11645 0.0 1015435
13:00+26с54715 0.0 1013485
16:00+27сз567213 0.2 1013738
19:00+25ссз457574 0.9 1015634
22:00+26с237364 0.6 1016640
30 ноября, вт
вт3001:00+25всв1275100 0.8 1015590
04:00+25в2278100 0.4 1014495
07:00+25в237898 1.1 1017486
10:00+25всв237681 0.6 1018544
13:00+26св3375100 0.9 1015602
16:00+26св4474100 0.8 1015716
19:00+26всв347541 2.5 1017675
22:00+25в457766 0.7 1017639
1 декабря, ср
ср101:00+25вюв2381100 1.3 1016454
04:00+24вюв238222 0.3 1016434
07:00+24юв238363 0.3 1018370
10:00+25в357637 0.1 1019566
13:00+26св347877 0.2 1016547
16:00+26св4576100 1.6 1015637
19:00+26всв45807 3.6 1017500
22:00+25вюв35838 1.3 1017482
2 декабря, чт
чт201:00+24юв238425 1.3 1016390
04:00+24юв248313 0.0 1016378
07:00+24юв238251 0.0 1017342
10:00+25всв237529 0.0 1017436
13:00+26св337512 0.0 1015496
16:00+26св337897 0.0 1014441
19:00+26вюв017932 0.4 1015317
22:00+26всв12770 0.5 1015523
3 декабря, пт
пт301:00+26всв127896 0.8 1014475
04:00+25юв228344 0.6 1013216
07:00+25вюв238371 0.7 1015393
10:00+26в347712 0.0 1016578
13:00+25св337912 0.1 1013561
16:00+26св457732 0.3 1013658
19:00+25в457859 5.3 1014623
22:00+26в577647 1.8 1015790